Location: Fauquembergues
(50.6005°N, 2.0987°E)
Time: 08:41:31
(UTC+00:00)

SL-24 DEB - Pass Details

Date: 14 July 2020
Orbit: 667 x 698 km, 92.0° (Epoch: 14 August)

Event Time Altitude Azimuth Distance (km) Brightness Sun altitude
Rises 00:53:46 0° 5° (N) 3,067 9.3 -16.7°
Reaches altitude 10° 00:56:02 10° 7° (N) 2,151 8.1 -16.6°
Maximum altitude 01:00:47 81° 94° (E) 709 4.3 -16.4°
Enters shadow 01:03:22 27° 179° (S) 1,311 5.2 -16.3°
